Home   Weather   Eckernförde   Past weeks

Flag for Germany Past Weather in Eckernförde, Schleswig-Holstein, Germany — Yesterday and Last 2 Weeks

Now
39 °F

Light rain. Partly sunny.


Feels Like: 32 °F
Forecast: 46 / 50 °F
Wind: 10 mph from Southwest

Location: Schleswig-Jagel

Current Time: Dec 7, 2016 at 1:31:27 pm

Latest Report: Dec 7, 2016 at 12:20 pm


Visibility: 4 mi

Pressure: 30.27 "Hg

Humidity: 87%

Dew Point: 36 °F

Location of EckernfördeLocation

Past Weather in Eckernförde — Graph

°F

Eckernförde Temperature Yesterday

Maximum temperature yesterday: 45 °F (at 12:20 pm)
Minimum temperature yesterday: 39 °F (at 2:20 am)
Average temperature yesterday: 41 °F

High & Low Weather Summary for the Past Weeks

 TemperatureHumidityPressure
High54 °F (Nov 22, 11:20 am)100% (Nov 23, 8:20 am)30.54 "Hg (Nov 23, 8:20 am)
Low21 °F (Nov 29, 1:20 am)61% (Nov 27, 1:20 pm)29.80 "Hg (Nov 22, 11:20 am)
Average37 °F88%30.23 "Hg
* Reported Nov 22 11:20 am — Dec 7 11:20 am, Eckernförde, Weather by CustomWeather, © 2016

Note: Actual official high and low records may vary slightly from our data, if they occured in-between our weather recording intervals... More about our weather records

Advertising

Eckernförde Weather History for the Previous 24 Hours

Scroll right to see more
 ConditionsComfort  
Time TempWeatherWind HumidityBarometerVisibility
11:20 am
Wed, Dec 7
37 °FLight rain. Broken clouds.12 mph87%30.30 "Hg5 mi
10:20 am36 °FLight rain. Partly sunny.12 mph87%30.30 "Hg5 mi
9:20 am36 °FLight rain. Broken clouds.10 mph87%30.33 "Hg5 mi
8:20 am36 °FPassing clouds.12 mph81%30.33 "HgN/A
7:20 am36 °FPartly cloudy.8 mph81%30.36 "HgN/A
6:20 am36 °FPartly cloudy.8 mph75%30.36 "HgN/A
5:20 am36 °FPassing clouds.12 mph81%30.39 "HgN/A
4:20 am36 °FChilly.8 mph81%30.39 "HgN/A
3:20 am36 °FChilly.8 mph81%30.42 "HgN/A
2:20 am36 °FChilly.6 mph87%30.45 "HgN/A
1:20 am37 °FChilly.7 mph81%30.45 "HgN/A
12:20 am37 °FChilly.7 mph87%30.45 "HgN/A
11:20 pm
Tue, Dec 6
39 °FChilly.3 mph81%30.48 "HgN/A
10:20 pm39 °FChilly.6 mph81%30.45 "HgN/A
9:20 pm39 °FChilly.7 mph87%30.48 "HgN/A
8:20 pm39 °FChilly.6 mph93%30.48 "HgN/A
6:20 pm41 °FQuite cool.5 mph87%30.48 "HgN/A
5:20 pm43 °FQuite cool.6 mph87%30.48 "HgN/A
4:20 pm43 °FPassing clouds.6 mph87%30.45 "HgN/A
3:20 pm45 °FPartly sunny.3 mph81%30.42 "HgN/A
2:20 pm45 °FPartly sunny.3 mph81%30.42 "HgN/A
1:20 pm45 °FDrizzle. Partly sunny.6 mph87%30.42 "HgN/A
Weather by CustomWeather, © 2016

See weather overviewHow to use our weather pages